BREEZE-M DEB (TANK)

Satellite information

Favourite Embed

Satellite Type and Status

DEBRISIN ORBIT

Key statistics

Satellite BREEZE-M DEB (TANK) at a glance.

Uptime

6274

Days in orbit

Revolutions

≈ 5.7

Per day

Orbit

MEO

Medium Earth Orbit

Inclination

46.0

Latest

Satellite identification and parameters

Extended collection of information and parameters for BREEZE-M DEB (TANK).

Object identification

Identified? True

Debris? True

Object name: BREEZE-M DEB (TANK)

International designator: 2008-039B

Object number (NORAD): 33279

Object ID (CCSDS): 33279

Country: COMMONWEALTH OF INDEPENDENT STATES (CIS)

Current information (Y/N): Y

RCS size: LARGE

Orbital parameters

Period: 250.748 minutes

Inclination: 45.9855 deg

SMA: 13171.994 km

Apoapsis: 13142.988 km

Periapsis: 444.73 km

RAAN: 249.0583 deg

Eccentricy: 0.48201731

Argument of periapsis: 126.053 deg

Mean anomaly: 288.8514 deg

Mean motion: 5.74282372 rev/day

Mean motion (dot): 0.00000451 rev/day2

B* drag term: 0.00050278323 1/REarth

Two-line elements (TLE)

Creation date: Oct. 21, 2025, 6:24 p.m.

Reference frame: TEME

Reference center: EARTH

Epoch: Oct. 21, 2025, 5:09 a.m. UTC

TLE line 0: 0 BREEZE-M DEB (TANK)

TLE line 1: 1 33279U 08039B 25294.21512841 .00000451 00000-0 50278-3 0 9995

TLE line 2: 2 33279 45.9855 249.0583 4820173 126.0530 288.8514 5.74282372356971

Live tracking on map

Real-time ground track for satellite BREEZE-M DEB (TANK).

In-orbit conjunctions

There are no conjunctions computed for BREEZE-M DEB (TANK), at the moment. Check back to stay up to date, as we update our databases every day.

Go to all conjunctions

Associated space launch

Inmarsat geostationary communications satellite

BREEZE-M DEB (TANK) was lifted into orbit during the mission ‘Proton-M Briz-M | Inmarsat 4 F3’, on board a Proton-M Briz-M space rocket.

The launch took place on Aug. 18, 2008, 10:43 p.m. from 200/39 (200L).

For more information about the launch, click the button.

Launch to space Proton-M Briz-M | Inmarsat 4 F3
Proton-M Briz-M | Inmarsat 4 F3

Agency: N/A

Status: Launch Successful

Launch date: Aug. 18, 2008, 10:43 p.m. UTC

Rocket: Proton-M Briz-M

Launch pad: 200/39 (200L)

Location: Baikonur Cosmodrome, Republic of Kazakhstan

...

Latest news about this satellite

There are no fresh news available about this satellite. Check back as we update our databases every day.


Newsletter sign-up

Weekly statistics, charts and insights to help you stay on top of the space industry.